{"data":{"norad_id":63263,"epoch":"2026-09-22T22:45:27.150624Z","epoch_age_seconds":97043,"freshness":"FRESH","line1":"1 63263U 25052BF  26265.94823091  .00001108  00000+0  10077-3 0  9998","line2":"2 63263  97.6707 156.5269 0002952  36.6787 323.4637 14.97193698 83317","mean_motion":14.97193698,"eccentricity":0.0002952,"inclination_deg":97.6707,"raan_deg":156.5269,"arg_perigee_deg":36.6787,"mean_anomaly_deg":323.4637,"bstar":0.00010077,"rev_number":8331,"period_min":96.179939971935,"perigee_km":573.51929847299,"apogee_km":577.6247682863,"semimajor_km":6953.7090333796,"source":"CELESTRAK","updated_at":"2026-09-23T09:00:21.942387Z"}}